DW8838 Weather Reports


time (UTC)temp
C
wind
direction
speed
KPH
gust
KPH
rain 1hr
cm
rain 24hr
cm
rain mn
cm
humidity
%
barometer
mb
20260510234517 6 0.0 1.6 0.00 0.00 0.00 78
20260510233517 5 338 1.6 1.6 0.00 0.00 0.00 77
20260510232517 5 0.0 0.0 0.00 0.00 0.00 76
20260510231517 6 0.0 0.0 0.00 0.00 0.00 75
20260510230517 6 0.0 0.0 0.00 0.00 0.00 73
20260510225517 6 0.0 0.0 0.00 0.00 0.00 72
20260510224517 6 0.0 0.0 0.00 0.00 0.00 71
20260510223517 6 0.0 0.0 0.00 0.00 0.00 71
20260510222517 7 0.0 1.6 0.00 0.00 0.00 69
20260510221517 7 203 1.6 3.2 0.00 0.00 0.00 68
20260510220517 7 158 1.6 3.2 0.00 0.00 0.00 69
20260510215537 7 225 3.2 4.8 0.00 0.00 0.00 70
20260510214517 6 0.0 1.6 0.00 0.00 0.00 73
20260510213517 7 0.0 0.0 0.00 0.00 0.00 73
20260510212537 7 0.0 0.0 0.00 0.00 0.00 71
20260510211557 7 0.0 0.0 0.00 0.00 0.00 70
20260510210537 7 0.0 0.0 0.00 0.00 0.00 68
20260510205517 7 0.0 0.0 0.00 0.00 0.00 66
20260510204517 8 158 1.6 1.6 0.00 0.00 0.00 65
20260510203517 8 158 1.6 3.2 0.00 0.00 0.00 65
20260510202517 8 135 1.6 3.2 0.00 0.00 0.00 64
20260510201537 8 0.0 0.0 0.00 0.00 0.00 63
20260510200517 8 0.0 0.0 0.00 0.00 0.00 63
20260510195517 8 158 1.6 3.2 0.00 0.00 0.00 62
20260510194517 9 0.0 1.6 0.00 0.00 0.00 62
20260510193517 9 135 1.6 3.2 0.00 0.00 0.00 61
20260510192517 10 0.0 0.0 0.00 0.00 0.00 60
20260510191517 10 135 1.6 4.8 0.00 0.00 0.00 58
20260510190517 10 68 1.6 3.2 0.00 0.00 0.00 55
20260510185517 10 68 1.6 1.6 0.00 0.00 0.00 55
20260510184517 11 68 3.2 3.2 0.00 0.00 0.00 53
20260510183517 11 68 3.2 4.8 0.00 0.00 0.00 53
20260510182517 11 68 6.4 11.3 0.00 0.00 0.00 53
20260510181517 11 68 3.2 4.8 0.00 0.00 0.00 51
20260510180517 11 68 1.6 4.8 0.00 0.00 0.00 52
20260510175537 11 90 3.2 6.4 0.00 0.00 0.00 51
20260510174516 12 68 4.8 9.7 0.00 0.00 0.00 51
20260510173516 12 0.0 1.6 0.00 0.00 0.00 53
20260510172517 12 68 4.8 14.5 0.00 0.00 0.00 52
20260510171516 11 68 6.4 8.0 0.00 0.00 0.00 53
20260510170517 11 68 6.4 8.0 0.00 0.00 0.00 54
20260510165517 11 68 3.2 6.4 0.00 0.00 0.00 50
20260510164517 11 45 6.4 8.0 0.00 0.00 0.00 53
20260510163536 11 68 11.3 14.5 0.00 0.00 0.00 52
20260510162517 11 68 8.0 11.3 0.00 0.00 0.00 53
20260510161516 11 68 11.3 16.1 0.00 0.00 0.00 52
20260510160516 12 68 1.6 4.8 0.00 0.00 0.00 50
20260510155516 12 0 3.2 6.4 0.00 0.00 0.00 51
20260510154516 11 45 8.0 14.5 0.00 0.00 0.00 52
20260510153516 12 45 1.6 3.2 0.00 0.00 0.00 50
20260510152516 12 90 3.2 6.4 0.00 0.00 0.00 51
20260510151516 12 45 14.5 20.9 0.00 0.00 0.00 51
20260510150537 12 68 8.0 12.9 0.00 0.00 0.00 49
20260510145516 12 68 8.0 17.7 0.00 0.00 0.00 51
20260510144516 12 68 14.5 19.3 0.00 0.00 0.00 50
20260510143516 12 68 11.3 17.7 0.00 0.00 0.00 50
20260510142516 12 68 11.3 16.1 0.00 0.00 0.00 50
20260510141516 12 68 11.3 20.9 0.00 0.00 0.00 51
20260510140516 12 68 3.2 8.0 0.00 0.00 0.00 51
20260510135517 12 0 6.4 9.7 0.00 0.00 0.00 50
20260510134516 12 45 4.8 9.7 0.00 0.00 0.00 53
20260510133517 12 68 8.0 14.5 0.00 0.00 0.00 53
20260510132516 11 90 11.3 17.7 0.00 0.00 0.00 54
20260510131516 12 45 14.5 20.9 0.00 0.00 0.00 51
20260510130516 12 68 6.4 11.3 0.00 0.00 0.00 54
20260510125516 11 68 9.7 14.5 0.00 0.00 0.00 55
20260510124516 12 68 4.8 8.0 0.00 0.00 0.00 52
20260510123536 11 68 4.8 8.0 0.00 0.00 0.00 54
20260510122516 12 68 8.0 12.9 0.00 0.00 0.00 55
20260510121516 11 68 4.8 9.7 0.00 0.00 0.00 56
20260510120516 11 68 9.7 14.5 0.00 0.00 0.00 58
20260510115536 11 68 9.7 14.5 0.00 0.00 0.00 58
20260510114516 11 68 8.0 12.9 0.00 0.00 0.00 56
20260510113516 11 68 8.0 17.7 0.00 0.00 0.00 60
20260510112516 11 68 11.3 19.3 0.00 0.00 0.00 62
20260510111516 11 68 4.8 14.5 0.00 0.00 0.00 63
20260510110536 10 23 8.0 11.3 0.00 0.00 0.00 63
20260510105516 10 0 4.8 9.7 0.00 0.00 0.00 64
20260510104516 11 68 8.0 12.9 0.00 0.00 0.00 63
20260510103516 11 68 8.0 14.5 0.00 0.00 0.00 62
20260510102536 11 68 8.0 22.5 0.00 0.00 0.00 64
20260510101516 10 68 16.1 20.9 0.00 0.00 0.00 62
20260510100536 10 68 8.0 12.9 0.00 0.00 0.00 67
20260510095516 10 45 6.4 11.3 0.00 0.00 0.00 69
20260510094516 10 68 11.3 19.3 0.00 0.00 0.00 68
20260510093516 10 68 9.7 17.7 0.00 0.00 0.00 70
20260510092516 10 68 9.7 17.7 0.00 0.00 0.00 71
20260510091516 8 68 16.1 25.7 0.00 0.00 0.00 72
20260510090516 8 68 9.7 20.9 0.00 0.00 0.00 72
20260510085516 8 45 14.5 24.1 0.00 0.00 0.00 74
20260510084516 8 68 9.7 16.1 0.00 0.00 0.00 74
20260510083537 8 68 14.5 22.5 0.00 0.00 0.00 75
20260510082536 8 68 9.7 16.1 0.00 0.00 0.00 77
20260510081536 7 68 11.3 19.3 0.00 0.00 0.00 79
20260510080536 7 45 8.0 11.3 0.00 0.00 0.00 79
20260510075536 7 68 8.0 12.9 0.00 0.00 0.00 79
20260510074516 7 45 9.7 14.5 0.00 0.00 0.00 79
20260510073516 7 45 12.9 22.5 0.00 0.00 0.00 79
20260510072516 8 45 12.9 20.9 0.00 0.00 0.00 78
20260510071518 8 45 11.3 22.5 0.00 0.00 0.00 79
20260510070517 8 68 11.3 17.7 0.00 0.00 0.00 80
20260510065518 7 45 8.0 12.9 0.00 0.00 0.00 82
20260510064538 7 68 11.3 20.9 0.00 0.00 0.00 84
20260510063516 7 68 9.7 19.3 0.00 0.00 0.00 84
20260510062518 7 45 14.5 24.1 0.00 0.00 0.00 85
20260510061517 6 45 1.6 3.2 0.00 0.00 0.00 89
20260510060517 6 68 6.4 9.7 0.00 0.00 0.00 90
20260510055518 6 45 9.7 17.7 0.00 0.00 0.00 90
20260510054517 6 45 6.4 17.7 0.00 0.00 0.00 91
20260510053558 6 45 8.0 16.1 0.00 0.00 0.00 91
20260510052517 6 68 11.3 17.7 0.00 0.00 0.00 91
20260510051517 6 45 6.4 8.0 0.00 0.00 0.00 91
20260510050517 6 0 3.2 6.4 0.00 0.00 0.00 91
20260510045517 6 68 8.0 17.7 0.00 0.00 0.00 91
20260510044518 6 68 4.8 11.3 0.00 0.00 0.00 91
20260510043517 6 23 6.4 14.5 0.00 0.00 0.00 91
20260510042517 6 23 4.8 9.7 0.00 0.00 0.00 91
20260510041517 6 45 3.2 9.7 0.00 0.00 0.00 91
20260510040537 6 68 8.0 12.9 0.00 0.00 0.00 91
20260510035517 6 68 6.4 12.9 0.00 0.00 0.00 91
20260510034517 6 45 3.2 9.7 0.00 0.00 0.00 91
20260510033557 6 68 3.2 6.4 0.00 0.00 0.00 91
20260510032557 6 0 3.2 27.4 0.00 0.00 0.00 91
20260510031517 6 68 4.8 9.7 0.00 0.00 0.00 92
20260510030517 6 45 4.8 12.9 0.00 0.00 0.00 92
20260510025537 6 45 4.8 11.3 0.00 0.00 0.00 92
20260510024517 6 0 4.8 9.7 0.00 0.00 0.00 92
20260510023517 6 45 4.8 9.7 0.00 0.00 0.00 92
20260510022517 6 45 6.4 9.7 0.00 0.00 0.00 92
20260510021517 6 68 6.4 16.1 0.00 0.00 0.00 92
20260510020558 6 68 3.2 9.7 0.00 0.00 0.00 93
20260510015537 6 45 8.0 12.9 0.00 0.00 0.00 93
20260510014517 6 45 3.2 6.4 0.00 0.00 0.00 93
20260510013517 6 68 6.4 11.3 0.00 0.00 0.00 93
20260510012518 6 45 4.8 11.3 0.00 0.00 0.00 93
20260510011517 6 68 4.8 9.7 0.00 0.00 0.00 93
20260510010517 6 68 3.2 12.9 0.00 0.00 0.00 94
20260510005517 6 68 3.2 8.0 0.00 0.00 0.00 94
20260510004517 6 68 6.4 14.5 0.00 0.00 0.00 94
20260510003517 7 0 3.2 6.4 0.00 0.00 0.00 94
20260510002517 6 68 3.2 9.7 0.00 0.00 0.00 95
20260510001517 6 68 6.4 16.1 0.00 0.00 0.00 95
20260510000517 7 45 4.8 11.3 0.00 0.00 0.00 95
20260509235517 7 45 3.2 9.7 0.00 0.00 0.00 95